TimeMST,TemperatureF,Dew PointF,Humidity,Sea Level PressureIn,VisibilityMPH,Wind Direction,Wind SpeedMPH,Gust SpeedMPH,PrecipitationIn,Events,Conditions,WindDirDegrees,DateUTC
12:15 AM,24.8,21.2,86,29.86,10.0,East,4.6,-,N/A,,Overcast,80,2012-12-13 07:15:00
12:35 AM,24.8,24.8,100,29.86,10.0,Calm,Calm,-,N/A,,Overcast,0,2012-12-13 07:35:00
12:55 AM,24.8,24.8,100,29.86,4.0,North,4.6,-,N/A,,Mostly Cloudy,10,2012-12-13 07:55:00
1:15 AM,23.0,21.2,93,29.86,7.0,North,6.9,-,N/A,,Mostly Cloudy,360,2012-12-13 08:15:00
1:35 AM,21.2,21.2,100,29.86,10.0,North,6.9,-,N/A,,Overcast,350,2012-12-13 08:35:00
1:55 AM,21.2,21.2,100,29.87,10.0,Calm,Calm,-,N/A,,Overcast,0,2012-12-13 08:55:00
2:55 AM,21.2,21.2,100,29.87,3.0,North,4.6,-,N/A,,Mostly Cloudy,350,2012-12-13 09:55:00
3:15 AM,21.2,21.2,100,29.88,5.0,North,3.5,-,N/A,,Mostly Cloudy,360,2012-12-13 10:15:00
3:35 AM,21.2,21.2,100,29.87,8.0,Calm,Calm,-,N/A,,Overcast,0,2012-12-13 10:35:00
3:55 AM,21.2,21.2,100,29.88,8.0,Calm,Calm,-,N/A,,Overcast,0,2012-12-13 10:55:00
4:15 AM,21.2,21.2,100,29.88,6.0,NNW,3.5,-,N/A,,Overcast,330,2012-12-13 11:15:00
4:35 AM,21.2,21.2,100,29.87,6.0,Calm,Calm,-,N/A,,Overcast,0,2012-12-13 11:35:00
4:55 AM,21.2,21.2,100,29.87,5.0,NNW,3.5,-,N/A,,Overcast,340,2012-12-13 11:55:00
5:15 AM,21.2,21.2,100,29.87,3.0,NNW,3.5,-,N/A,,Overcast,340,2012-12-13 12:15:00
5:35 AM,21.2,21.2,100,29.88,8.0,North,3.5,-,N/A,,Overcast,360,2012-12-13 12:35:00
5:55 AM,21.2,21.2,100,29.88,10.0,Calm,Calm,-,N/A,,Overcast,0,2012-12-13 12:55:00
6:15 AM,21.2,21.2,100,29.89,9.0,Calm,Calm,-,N/A,,Overcast,0,2012-12-13 13:15:00
6:35 AM,21.2,21.2,100,29.89,8.0,Calm,Calm,-,N/A,,Overcast,0,2012-12-13 13:35:00
6:58 AM,21.2,21.2,100,29.89,10.0,Calm,Calm,-,N/A,Snow,Snow Showers,0,2012-12-13 13:58:00
7:51 AM,21.2,21.2,100,29.90,5.0,Calm,Calm,-,N/A,Snow,Light Snow,0,2012-12-13 14:51:00
8:51 AM,23.0,23.0,100,29.91,10.0,SSE,4.6,-,N/A,Snow,Snow Showers,160,2012-12-13 15:51:00
9:55 AM,24.8,24.8,100,29.91,6.0,SSE,3.5,-,N/A,,Mostly Cloudy,150,2012-12-13 16:55:00
10:29 AM,26.6,24.8,93,29.91,1.8,SSE,3.5,-,N/A,Snow,Light Snow,160,2012-12-13 17:29:00
10:54 AM,26.6,26.6,100,29.91,1.5,SSE,3.5,-,N/A,Snow,Light Snow,150,2012-12-13 17:54:00
11:54 AM,28.4,26.6,93,29.90,10.0,Calm,Calm,-,N/A,Snow,Snow,0,2012-12-13 18:54:00
12:52 PM,30.2,28.4,93,29.89,10.0,Calm,Calm,-,N/A,Snow,Snow,0,2012-12-13 19:52:00
1:55 PM,30.2,28.4,93,29.87,6.0,Calm,Calm,-,N/A,Snow,Light Snow,0,2012-12-13 20:55:00
2:52 PM,30.2,28.4,93,29.86,10.0,SW,5.8,-,N/A,,Overcast,220,2012-12-13 21:52:00
5:55 PM,30.2,26.6,86,29.85,10.0,South,6.9,-,N/A,,Mostly Cloudy,180,2012-12-14 00:55:00
6:52 PM,28.4,26.6,93,29.85,8.0,South,3.5,-,N/A,,Overcast,170,2012-12-14 01:52:00
7:53 PM,28.4,26.6,93,29.85,8.0,Calm,Calm,-,N/A,,Overcast,0,2012-12-14 02:53:00
8:51 PM,28.4,26.6,93,29.85,10.0,Calm,Calm,-,N/A,,Overcast,0,2012-12-14 03:51:00
8:55 PM,28.4,26.6,93,29.85,10.0,Calm,Calm,-,N/A,,Overcast,0,2012-12-14 03:55:00
9:35 PM,28.4,26.6,93,29.84,10.0,Calm,Calm,-,N/A,,Overcast,0,2012-12-14 04:35:00
9:55 PM,28.4,26.6,93,29.84,10.0,Calm,Calm,-,N/A,,Overcast,0,2012-12-14 04:55:00
10:35 PM,26.6,26.6,100,29.84,10.0,Calm,Calm,-,N/A,,Overcast,0,2012-12-14 05:35:00
10:55 PM,28.4,26.6,93,29.84,10.0,Calm,Calm,-,N/A,,Overcast,0,2012-12-14 05:55:00
11:15 PM,28.4,26.6,93,29.83,10.0,ESE,3.5,-,N/A,,Overcast,110,2012-12-14 06:15:00
11:35 PM,28.4,26.6,93,29.83,10.0,Calm,Calm,-,N/A,,Overcast,0,2012-12-14 06:35:00
11:55 PM,28.4,26.6,93,29.83,10.0,Calm,Calm,-,N/A,,Overcast,0,2012-12-14 06:55:00